FENGYUN 1C DEB, 32440

Orbit data source: Space-Track

FENGYUN 1C DEB, 32440 is space debris in SSO originally from a launch on Mon, 10 May 1999 UTC launched from the Taiyaun Space Center, China (TSC). Fengyun 1C debris stems from the Chinese weather satellite Fengyun-1C, which was intentionally destroyed by a Chinese anti-satellite missile in 2007. This event dramatically increased the amount of space debris, with thousands of trackable fragments posing hazards to satellites and human spaceflight. The Fengyun 1C debris cloud has become a focal point in discussions about space sustainability and the need for international regulations to prevent the creation of new debris.

Loading next visibility...
Identifier
32440, 1999-025DBC
Orbit
SSO
Country
Flag of CNCN / PRC
Related business
Manufacturer
Unknown
Mission
Spacecraft
Bus & Motor
Unknown
Mass
Unknown
Launch date (UTC)
1999-05-10 (27 years ago)
Launch vehicle
Unknown
Launch site
Taiyaun Space Center, China (TSC)
Object type
Payload
Rocket body
Debris
Shape & HBR
Unknown shape, 0.1 m
Radar Cross Section
Small (<0.1 m²)

Expand to show TLE details & history
Last TLE update: 1 month ago

TLE from 1 month ago
0 FENGYUN 1C DEB
1 32440U 99025DBC 26035.85198885  .00003840  00000-0  35493-2 0  9997
2 32440  99.1556 252.8273 0326017 311.7197  45.6477 13.61708078610222
Epoch: 2026-02-04T20:26Z
TLE epoch observation values (Epoch: 2026-02-04T20:26:51.836Z)
Latitude
-0.00003°
Longitude
171.09869°
Altitude
867.627 km
Speed
7.501 km/s
True Right ascension
16h 51m 18s
True Declination
0° 00' 00"
Sunlit
Object was in daylight at epoch
Visualization orbit readout
Latitude
Unknown
Longitude
Unknown
Altitude
Unknown
Speed
Unknown
Apparent Right ascension
Unknown
Apparent Declination
Unknown
Sunlit
N/A
Visualization observer readout
Local Sidereal Time
20:00:18
Azimuth
Unknown
Elevation
Unknown
Doppler factor
Unknown
Orbital elements
Apogee altitude
1,268.157 km
Perigee altitude
785.333 km
Semi-major axis
7,404.882 km
Eccentricity
0.0326
Inclination
99.1556°
RAAN
252.8273°
Arg. of periapsis
311.7197°
True anomaly
48.39624°
Mean anomaly
45.6477°
Eccentric anomaly
47.01414°
Mean motion
3.40617 °/min
Orbital period
105.69 mins
BSTAR
0.0035493
Loading maneuver chart data...
Computing Atmospheric mass density...

Documentation

Showing up to 5 results
|